Regional Weather Roundup
Issued by NWS

Home | Current Version | Previous Version | Text Only | Print | Product List | Glossary Off
Versions: 1 2 3 4 5 6 7 8 9 10 11 12 13 14 15 16 17 18 19 20 21 22 23 24 25 26 27 28 29 30 31 32 33 34 35 36 37 38 39 40 41 42 43 44 45 46 47 48 49 50

982
ASUS43 KDMX 211206
RWRIA

WEATHER ROUNDUP FOR IOWA
NATIONAL WEATHER SERVICE DES MOINES IA
600 AM CST TUE NOV 21 2017

NOTE: "FAIR" INDICATES FEW OR NO CLOUDS BELOW 12,000 FEET WITH NO
SIGNIFICANT WEATHER AND/OR OBSTRUCTIONS TO VISIBILITY.

* - THESE STATIONS ARE NOT NWS STATIONS...THUS NOT UNDER NWS
QUALITY CONTROL.  THEY ALSO DO NOT REPORT WEATHER SUCH
AS PRECIPITATION OR FOG.

IAZ001>003-012>014-020>022-031>034-043>046-211300-
   NORTHWEST IOWA

CITY           SKY/WX    TMP DP  RH WIND       PRES   REMARKS
CARROLL *      CLOUDY    39  19  45 NW20G30   29.89R WCI  30
CHEROKEE *     CLOUDY    38  19  47 NW12G25   29.92R WCI  30
DENISON *      CLOUDY    39  19  45 NW12G23   29.94R WCI  32
LE MARS *      CLOUDY    37  19  48 NW24G33   29.95R WCI  26
ORANGE CITY *  CLOUDY    36  19  51 NW24G31   29.94R WCI  24
SHELDON *      CLOUDY    32  14  47 NW29G40   29.91R WCI  18
SIOUX CITY     CLOUDY    40  22  48 NW16G25   29.95R WCI  31
6HR MIN TEMP:  35; 6HR MAX TEMP:  43;

SPENCER        CLOUDY    34  13  41 NW29G40   29.90R WCI  20
6HR MIN TEMP:  34; 6HR MAX TEMP:  41;

STORM LAKE *   CLOUDY    37  19  48 NW23G31   29.89R WCI  26
$$

IAZ055>058-069>071-079>083-090>094-211300-
   SOUTHWEST IOWA

CITY           SKY/WX    TMP DP  RH WIND       PRES   REMARKS
ATLANTIC *     CLOUDY    41  23  48 N16G22    29.91R
AUDUBON *      LGT RAIN  37  27  65 NW14G22   29.91R WCI  29
CLARINDA *       N/A     41  32  70 N13       29.89R
COUNCIL BLFS * MIX PCPN  41  25  52 N22G39    29.91R
CRESTON *      CLOUDY    41  27  56 N14       29.87R
HARLAN  *      MIX PCPN  37  27  65 N18G26    29.95R WCI  27
LAMONI         CLOUDY    43  28  55 N15G26    29.83R
6HR MIN TEMP:  39; 6HR MAX TEMP:  47;

RED OAK *      CLOUDY    43  25  49 N17G25    29.91R
SHENANDOAH *   CLOUDY    43  28  56 N17       29.91R
$$

IAZ047>049-059>061-072>074-084-211300-
   CENTRAL IOWA

CITY           SKY/WX    TMP DP  RH WIND       PRES   REMARKS
AMES           LGT RAIN  38  24  57 NW20G28   29.83R WCI  28
6HR MIN TEMP:  37; 6HR MAX TEMP:  45; 6HR PCP: TRACE;

ANKENY *       CLOUDY    41  19  42 N17       29.86R
BOONE *        MIX PCPN  39  18  41 NW23G31   29.83R WCI  29
CHARITON *     CLOUDY    43  25  49 N14G20    29.83R
DES MOINES     CLOUDY    42  24  49 NW12      29.85R
6HR MIN TEMP:  42; 6HR MAX TEMP:  47;

GRINNELL*      CLOUDY    39  21  47 NW21G26   29.81R WCI  29
KNOXVILLE *    CLOUDY    43  21  42 N15G24    29.82R
MARSHALLTOWN   CLOUDY    38  18  44 NW21G29   29.80R WCI  28
6HR MIN TEMP:  36; 6HR MAX TEMP:  41;

NEWTON *       CLOUDY    39  21  48 NW17G25   29.82R WCI  30
PELLA *        CLOUDY    41  26  54 NW10      29.84R
PERRY *        LGT RAIN  37  24  59 NW18G24   29.87R WCI  27
$$

IAZ004>006-015-016-023>025-035-036-211300-
   NORTH CENTRAL IOWA

CITY           SKY/WX    TMP DP  RH WIND       PRES   REMARKS
ALGONA *       CLOUDY    36  19  51 NW17G30   29.85R WCI  25
CLARION *      CLOUDY    36  19  51 NW16G24   29.84R WCI  26
ESTHERVILLE    CLOUDY    30  16  56 NW22G37   29.88R WCI  17
6HR MIN TEMP:  30; 6HR MAX TEMP:  38;

FORT DODGE *   CLOUDY    38  18  44 NW12G21   29.87R WCI  30
MASON CITY     CLOUDY    32  15  49 NW24G31   29.81R WCI  19
6HR MIN TEMP:  32; 6HR MAX TEMP:  38;

FOREST CITY *  MOCLDY    32  18  55 N18       29.82R WCI  20
WEBSTER CITY * CLOUDY    37  18  44 NW21G28   29.83R WCI  27
IOWA FALLS *   CLOUDY    37  20  49 NW20G26   29.82R WCI  27
$$

IAZ007>011-017>019-026>030-037>042-050>054-066-211300-
   NORTHEAST IOWA

CITY           SKY/WX    TMP DP  RH WIND       PRES   REMARKS
CEDAR RAPIDS   CLOUDY    41  28  60 NW15      29.73R
6HR MIN TEMP:  37; 6HR MAX TEMP:  46;

CHARLES CITY * CLOUDY    36  16  44 NW16G23   29.77R WCI  26
CLINTON *      CLOUDY    40  32  73 W10       29.71R WCI  33
DECORAH *      CLOUDY    34  12  40 NW17G39   29.72R WCI  23
DUBUQUE        CLOUDY    39  27  62 W9        29.69R WCI  33
6HR MIN TEMP:  37; 6HR MAX TEMP:  43;

MONTICELLO *   CLOUDY    41  23  48 NW22G31   29.72R
OELWEIN *      CLOUDY    36  18  48 NW23G32   29.76R WCI  24
WATERLOO       CLOUDY    37  14  38 NW23G32   29.77R WCI  26
6HR MIN TEMP:  37; 6HR MAX TEMP:  43;

$$

IAZ064-065-067-068-078-211300-
   EAST CENTRAL IOWA

CITY           SKY/WX    TMP DP  RH WIND       PRES   REMARKS
DAVENPORT      CLOUDY    41  31  67 W7        29.74R
6HR MIN TEMP:  40; 6HR MAX TEMP:  48;

IOWA CITY      CLOUDY    44  29  55 W7        29.77R
6HR MIN TEMP:  35; 6HR MAX TEMP:  48;

MT. PLEASANT * MOCLDY    42  31  64 W8        29.76R
MUSCATINE *    CLOUDY    43  30  61 W7        29.75S
QUAD CITIES    CLOUDY    44  31  60 W8        29.72R
6HR MIN TEMP:  40; 6HR MAX TEMP:  48;

$$

IAZ062-063-075>077-085>089-095>099-211300-
   SOUTHEAST IOWA

CITY           SKY/WX    TMP DP  RH WIND       PRES   REMARKS
BURLINGTON     CLOUDY    44  33  65 W6        29.75R
6HR MIN TEMP:  41; 6HR MAX TEMP:  47;

FAIRFIELD *    CLOUDY    41  30  65 NW9       29.78R
FORT MADISON * MOCLDY    45  34  65 W7        29.77R
KEOKUK *       CLOUDY    43  32  65 W8        29.77R
OSKALOOSA *      N/A     40  30  66 NW10      29.81R WCI  34
OTTUMWA        CLOUDY    43  30  60 NW10      29.79R
6HR MIN TEMP:  40; 6HR MAX TEMP:  50;

WASHINGTON *   CLOUDY    43  30  61 NW12      29.77R
$$

ABBREVIATIONS USED IN REMARKS
   TC - TEMPERATURES IN CELSIUS
  WCI - WIND CHILL INDEX
   HX - HEAT INDEX
  VSB - VISIBILITY
$$





USA.gov is the U.S. government's official web portal to all federal, state and local government web resources and services.